Regional Weather Roundup
Issued by NWS

Home | Current Version | Previous Version | Text Only | Print | Product List | Glossary On
Versions: 1 2 3 4 5 6 7 8 9 10 11 12 13 14 15 16 17 18 19 20 21 22 23 24 25 26 27 28 29 30 31 32 33 34 35 36 37 38 39 40 41 42 43 44 45 46 47 48 49 50
000
ASUS43 KTOP 290208
RWRKS

WEATHER ROUNDUP FOR KANSAS
NATIONAL WEATHER SERVICE GOODLAND KS
900 PM CDT FRI APR 28 2017

NOTE:  "FAIR" INDICATES FEW OR NO CLOUDS BELOW 12,000 FEET WITH NO
SIGNIFICANT WEATHER AND/OR OBSTRUCTIONS TO VISIBILITY.

KSZ001>006-013>018-027>032-041>047-290300-
NORTHWEST KANSAS

CITY           SKY/WX    TMP DP  RH WIND       PRES   REMARKS
GOODLAND       MIX PCPN  35  34  96 NE15G22   29.96R FOG     WCI  25
HAYS           CLOUDY    43  38  82 N20       29.93R
HILL CITY      CLOUDY    39  37  92 NE16      29.98R WCI  30
RUSSELL        CLOUDY    43  39  86 N17G26    29.89R
$$

KSZ061>065-074>080-084>089-290300-
SOUTHWEST KANSAS

CITY           SKY/WX    TMP DP  RH WIND       PRES   REMARKS
DODGE CITY     LGT RAIN  45  44  97 N15       29.89R FOG
ELKHART          N/A     44  37  76 MISG        N/A
GARDEN CITY    RAIN      43  41  93 NE17      29.90R FOG
GREAT BEND     CLOUDY    45  42  89 N18       29.90R
LIBERAL        RAIN      48  47  96 NE8       29.83F FOG
PRATT          CLOUDY    47  43  84 NE21G26   29.82R
$$

KSZ066>073-081>083-090>101-290300-
SOUTHEAST KANSAS

CITY           SKY/WX    TMP DP  RH WIND       PRES   REMARKS
CHANUTE        PTCLDY    62  55  77 E3        29.79R
COFFEYVILLE    CLOUDY    62  59  90 NE8       29.77R
HUTCHINSON     CLOUDY    50  45  83 N21G31    29.83R
MEDICINE LODGE   N/A     58  50  75 N24G32    29.75R
NEWTON         CLOUDY    51  47  86 N18G26    29.83R
PARSONS        CLOUDY    62  58  86 CALM      29.79R
WICHITA INTL   CLOUDY    61  53  75 N21G30    29.78R
WICHITA JABRA  CLOUDY    56  51  84 N20G29    29.79R
WICHITA MCCONL CLOUDY    63  53  71 N24G31    29.78R
WINFIELD       CLOUDY    67  55  65 E8        29.76R
$$

KSZ007>012-019>026-033>040-048>060-102>105-290300-
NORTHEAST KANSAS

CITY           SKY/WX    TMP DP  RH WIND       PRES   REMARKS
CONCORDIA      CLOUDY    41  40  96 N14       29.94R
EMPORIA        CLOUDY    51  50  96 N13G21    29.85R
LAWRENCE       CLOUDY    49  48  97 N12       29.89R
MANHATTAN      CLOUDY    45  42  89 NE13      29.93R
MARYSVILLE     CLOUDY    41  39  93 NE15G22   29.94R
OLATHE IND     CLOUDY    51  50  96 N16       29.87R
OLATHE EXE     CLOUDY    53  53 100 N10       29.86R
SALINA         CLOUDY    47  42  83 NE14      29.92R
TOPEKA BILLARD CLOUDY    47  47 100 N14G22    29.90R
TOPEKA FORBES  CLOUDY    49  47  93 N12       29.88R
$$




USA.gov is the U.S. government's official web portal to all federal, state and local government web resources and services.